#datetime,building,power
2022-07-16T00:00:00,mfh,16.20
2022-07-16T00:01:00,mfh,15.11
2022-07-16T00:02:00,mfh,15.09
2022-07-16T00:03:00,mfh,15.00
2022-07-16T00:04:00,mfh,15.04
2022-07-16T00:05:00,mfh,15.68
2022-07-16T00:06:00,mfh,15.65
2022-07-16T00:07:00,mfh,15.77
2022-07-16T00:08:00,mfh,15.72
2022-07-16T00:09:00,mfh,15.96
2022-07-16T00:10:00,mfh,15.57
2022-07-16T00:11:00,mfh,15.09
2022-07-16T00:12:00,mfh,14.98
2022-07-16T00:13:00,mfh,15.59
2022-07-16T00:14:00,mfh,15.44
2022-07-16T00:15:00,mfh,15.48
2022-07-16T00:16:00,mfh,14.96
2022-07-16T00:17:00,mfh,15.53
2022-07-16T00:18:00,mfh,14.80
2022-07-16T00:19:00,mfh,15.04
2022-07-16T00:20:00,mfh,14.77
2022-07-16T00:21:00,mfh,15.41
2022-07-16T00:22:00,mfh,15.44
2022-07-16T00:23:00,mfh,15.45
2022-07-16T00:24:00,mfh,14.74
2022-07-16T00:25:00,mfh,15.24
2022-07-16T00:26:00,mfh,14.88
2022-07-16T00:27:00,mfh,14.87
2022-07-16T00:28:00,mfh,14.80
2022-07-16T00:29:00,mfh,15.41
2022-07-16T00:30:00,mfh,15.42
2022-07-16T00:31:00,mfh,15.42
2022-07-16T00:32:00,mfh,15.44
2022-07-16T00:33:00,mfh,14.76
2022-07-16T00:34:00,mfh,15.04
2022-07-16T00:35:00,mfh,15.24
2022-07-16T00:36:00,mfh,14.80
2022-07-16T00:37:00,mfh,15.33
2022-07-16T00:38:00,mfh,15.69
2022-07-16T00:39:00,mfh,15.17
2022-07-16T00:40:00,mfh,15.39
2022-07-16T00:41:00,mfh,14.65
2022-07-16T00:42:00,mfh,14.65
2022-07-16T00:43:00,mfh,14.67
2022-07-16T00:44:00,mfh,14.74
2022-07-16T00:45:00,mfh,15.35
2022-07-16T00:46:00,mfh,15.28
2022-07-16T00:47:00,mfh,15.33
2022-07-16T00:48:00,mfh,15.31
2022-07-16T00:49:00,mfh,14.72
2022-07-16T00:50:00,mfh,14.59
2022-07-16T00:51:00,mfh,14.60
2022-07-16T00:52:00,mfh,14.93
2022-07-16T00:53:00,mfh,15.63
2022-07-16T00:54:00,mfh,15.69
2022-07-16T00:55:00,mfh,15.66
2022-07-16T00:56:00,mfh,15.65
2022-07-16T00:57:00,mfh,15.07
2022-07-16T00:58:00,mfh,14.96
2022-07-16T00:59:00,mfh,15.03
2022-07-16T01:00:00,mfh,15.03
2022-07-16T01:01:00,mfh,15.70
2022-07-16T01:02:00,mfh,15.96
2022-07-16T01:03:00,mfh,15.95
2022-07-16T01:04:00,mfh,15.69
2022-07-16T01:05:00,mfh,15.79
2022-07-16T01:06:00,mfh,15.89
2022-07-16T01:07:00,mfh,15.97
2022-07-16T01:08:00,mfh,15.99
2022-07-16T01:09:00,mfh,15.84
2022-07-16T01:10:00,mfh,15.89
2022-07-16T01:11:00,mfh,15.91
2022-07-16T01:12:00,mfh,15.93
2022-07-16T01:13:00,mfh,15.24
2022-07-16T01:14:00,mfh,15.23
2022-07-16T01:15:00,mfh,15.54
2022-07-16T01:16:00,mfh,15.18
2022-07-16T01:17:00,mfh,15.79
2022-07-16T01:18:00,mfh,16.35
2022-07-16T01:19:00,mfh,15.95
2022-07-16T01:20:00,mfh,15.95
2022-07-16T01:21:00,mfh,15.24
2022-07-16T01:22:00,mfh,15.16
2022-07-16T01:23:00,mfh,15.14
2022-07-16T01:24:00,mfh,15.14
2022-07-16T01:25:00,mfh,15.15
2022-07-16T01:26:00,mfh,15.80
2022-07-16T01:27:00,mfh,15.79
2022-07-16T01:28:00,mfh,15.79
2022-07-16T01:29:00,mfh,15.11
2022-07-16T01:30:00,mfh,14.86
2022-07-16T01:31:00,mfh,14.76
2022-07-16T01:32:00,mfh,14.69
2022-07-16T01:33:00,mfh,15.21
2022-07-16T01:34:00,mfh,15.28
2022-07-16T01:35:00,mfh,15.29
2022-07-16T01:36:00,mfh,15.30
2022-07-16T01:37:00,mfh,14.61
2022-07-16T01:38:00,mfh,14.78
2022-07-16T01:39:00,mfh,14.77
2022-07-16T01:40:00,mfh,14.69
2022-07-16T01:41:00,mfh,15.33
2022-07-16T01:42:00,mfh,15.32
2022-07-16T01:43:00,mfh,15.36
2022-07-16T01:44:00,mfh,15.63
2022-07-16T01:45:00,mfh,15.36
2022-07-16T01:46:00,mfh,14.93
2022-07-16T01:47:00,mfh,15.00
2022-07-16T01:48:00,mfh,14.92
2022-07-16T01:49:00,mfh,15.46
2022-07-16T01:50:00,mfh,15.47
2022-07-16T01:51:00,mfh,15.48
2022-07-16T01:52:00,mfh,15.54
2022-07-16T01:53:00,mfh,15.05
2022-07-16T01:54:00,mfh,14.94
2022-07-16T01:55:00,mfh,14.93
2022-07-16T01:56:00,mfh,14.73
2022-07-16T01:57:00,mfh,15.53
2022-07-16T01:58:00,mfh,15.56
2022-07-16T01:59:00,mfh,15.51
2022-07-16T02:00:00,mfh,15.57
2022-07-16T02:01:00,mfh,14.87
2022-07-16T02:02:00,mfh,14.89
2022-07-16T02:03:00,mfh,14.86
2022-07-16T02:04:00,mfh,14.94
2022-07-16T02:05:00,mfh,15.36
2022-07-16T02:06:00,mfh,15.43
2022-07-16T02:07:00,mfh,15.54
2022-07-16T02:08:00,mfh,15.57
2022-07-16T02:09:00,mfh,14.89
2022-07-16T02:10:00,mfh,15.21
2022-07-16T02:11:00,mfh,15.16
2022-07-16T02:12:00,mfh,15.15
2022-07-16T02:13:00,mfh,15.08
2022-07-16T02:14:00,mfh,15.71
2022-07-16T02:15:00,mfh,15.78
2022-07-16T02:16:00,mfh,15.75
2022-07-16T02:17:00,mfh,15.08
2022-07-16T02:18:00,mfh,14.94
2022-07-16T02:19:00,mfh,14.92
2022-07-16T02:20:00,mfh,15.02
2022-07-16T02:21:00,mfh,15.64
2022-07-16T02:22:00,mfh,15.44
2022-07-16T02:23:00,mfh,15.42
2022-07-16T02:24:00,mfh,15.57
2022-07-16T02:25:00,mfh,14.84
2022-07-16T02:26:00,mfh,14.89
2022-07-16T02:27:00,mfh,14.81
2022-07-16T02:28:00,mfh,14.82
2022-07-16T02:29:00,mfh,14.75
2022-07-16T02:30:00,mfh,15.43
2022-07-16T02:31:00,mfh,15.44
2022-07-16T02:32:00,mfh,15.46
2022-07-16T02:33:00,mfh,14.81
2022-07-16T02:34:00,mfh,14.88
2022-07-16T02:35:00,mfh,15.06
2022-07-16T02:36:00,mfh,15.04
2022-07-16T02:37:00,mfh,15.74
2022-07-16T02:38:00,mfh,15.73
2022-07-16T02:39:00,mfh,15.89
2022-07-16T02:40:00,mfh,15.84
2022-07-16T02:41:00,mfh,15.16
2022-07-16T02:42:00,mfh,15.17
2022-07-16T02:43:00,mfh,15.28
2022-07-16T02:44:00,mfh,16.23
2022-07-16T02:45:00,mfh,15.96
2022-07-16T02:46:00,mfh,15.96
2022-07-16T02:47:00,mfh,14.92
2022-07-16T02:48:00,mfh,14.68
2022-07-16T02:49:00,mfh,14.01
2022-07-16T02:50:00,mfh,14.01
2022-07-16T02:51:00,mfh,14.00
2022-07-16T02:52:00,mfh,14.15
2022-07-16T02:53:00,mfh,14.74
2022-07-16T02:54:00,mfh,14.64
2022-07-16T02:55:00,mfh,14.62
2022-07-16T02:56:00,mfh,14.64
2022-07-16T02:57:00,mfh,13.91
2022-07-16T02:58:00,mfh,13.92
2022-07-16T02:59:00,mfh,13.96
2022-07-16T03:00:00,mfh,13.92
2022-07-16T03:01:00,mfh,13.92
2022-07-16T03:02:00,mfh,14.85
2022-07-16T03:03:00,mfh,14.85
2022-07-16T03:04:00,mfh,14.97
2022-07-16T03:05:00,mfh,14.13
2022-07-16T03:06:00,mfh,14.19
2022-07-16T03:07:00,mfh,14.17
2022-07-16T03:08:00,mfh,14.24
2022-07-16T03:09:00,mfh,14.14
2022-07-16T03:10:00,mfh,14.70
2022-07-16T03:11:00,mfh,14.84
2022-07-16T03:12:00,mfh,14.81
2022-07-16T03:13:00,mfh,14.02
2022-07-16T03:14:00,mfh,13.98
2022-07-16T03:15:00,mfh,13.98
2022-07-16T03:16:00,mfh,13.92
2022-07-16T03:17:00,mfh,13.96
2022-07-16T03:18:00,mfh,14.60
2022-07-16T03:19:00,mfh,14.61
2022-07-16T03:20:00,mfh,14.73
2022-07-16T03:21:00,mfh,14.70
2022-07-16T03:22:00,mfh,13.93
2022-07-16T03:23:00,mfh,13.93
2022-07-16T03:24:00,mfh,14.05
2022-07-16T03:25:00,mfh,14.04
2022-07-16T03:26:00,mfh,14.68
2022-07-16T03:27:00,mfh,14.68
2022-07-16T03:28:00,mfh,14.86
2022-07-16T03:29:00,mfh,14.54
2022-07-16T03:30:00,mfh,14.69
2022-07-16T03:31:00,mfh,14.16
2022-07-16T03:32:00,mfh,14.10
2022-07-16T03:33:00,mfh,14.08
2022-07-16T03:34:00,mfh,14.79
2022-07-16T03:35:00,mfh,15.15
2022-07-16T03:36:00,mfh,14.95
2022-07-16T03:37:00,mfh,14.91
2022-07-16T03:38:00,mfh,14.30
2022-07-16T03:39:00,mfh,14.09
2022-07-16T03:40:00,mfh,14.01
2022-07-16T03:41:00,mfh,13.94
2022-07-16T03:42:00,mfh,15.20
2022-07-16T03:43:00,mfh,13.78
2022-07-16T03:44:00,mfh,13.70
2022-07-16T03:45:00,mfh,13.62
2022-07-16T03:46:00,mfh,13.62
2022-07-16T03:47:00,mfh,14.46
2022-07-16T03:48:00,mfh,14.31
2022-07-16T03:49:00,mfh,14.30
2022-07-16T03:50:00,mfh,14.38
2022-07-16T03:51:00,mfh,13.83
2022-07-16T03:52:00,mfh,13.82
2022-07-16T03:53:00,mfh,14.65
2022-07-16T03:54:00,mfh,14.89
2022-07-16T03:55:00,mfh,15.50
2022-07-16T03:56:00,mfh,15.53
2022-07-16T03:57:00,mfh,14.80
2022-07-16T03:58:00,mfh,14.87
2022-07-16T03:59:00,mfh,14.10
2022-07-16T04:00:00,mfh,14.13
2022-07-16T04:01:00,mfh,14.54
2022-07-16T04:02:00,mfh,15.00
2022-07-16T04:03:00,mfh,14.72
2022-07-16T04:04:00,mfh,15.18
2022-07-16T04:05:00,mfh,14.64
2022-07-16T04:06:00,mfh,15.08
2022-07-16T04:07:00,mfh,13.93
2022-07-16T04:08:00,mfh,13.86
2022-07-16T04:09:00,mfh,13.86
2022-07-16T04:10:00,mfh,13.81
2022-07-16T04:11:00,mfh,13.80
2022-07-16T04:12:00,mfh,15.07
2022-07-16T04:13:00,mfh,13.76
2022-07-16T04:14:00,mfh,13.70
2022-07-16T04:15:00,mfh,13.75
2022-07-16T04:16:00,mfh,13.75
2022-07-16T04:17:00,mfh,14.41
2022-07-16T04:18:00,mfh,14.41
2022-07-16T04:19:00,mfh,14.47
2022-07-16T04:20:00,mfh,14.00
2022-07-16T04:21:00,mfh,13.97
2022-07-16T04:22:00,mfh,13.96
2022-07-16T04:23:00,mfh,13.97
2022-07-16T04:24:00,mfh,14.04
2022-07-16T04:25:00,mfh,14.76
2022-07-16T04:26:00,mfh,15.26
2022-07-16T04:27:00,mfh,14.80
2022-07-16T04:28:00,mfh,14.12
2022-07-16T04:29:00,mfh,14.87
2022-07-16T04:30:00,mfh,14.32
2022-07-16T04:31:00,mfh,14.08
2022-07-16T04:32:00,mfh,14.67
2022-07-16T04:33:00,mfh,14.89
2022-07-16T04:34:00,mfh,14.90
2022-07-16T04:35:00,mfh,15.18
2022-07-16T04:36:00,mfh,14.76
2022-07-16T04:37:00,mfh,14.17
2022-07-16T04:38:00,mfh,14.64
2022-07-16T04:39:00,mfh,14.24
2022-07-16T04:40:00,mfh,14.20
2022-07-16T04:41:00,mfh,14.83
2022-07-16T04:42:00,mfh,15.19
2022-07-16T04:43:00,mfh,14.74
2022-07-16T04:44:00,mfh,14.71
2022-07-16T04:45:00,mfh,13.96
2022-07-16T04:46:00,mfh,14.13
2022-07-16T04:47:00,mfh,14.11
2022-07-16T04:48:00,mfh,14.10
2022-07-16T04:49:00,mfh,14.71
2022-07-16T04:50:00,mfh,14.66
2022-07-16T04:51:00,mfh,14.63
2022-07-16T04:52:00,mfh,14.74
2022-07-16T04:53:00,mfh,13.96
2022-07-16T04:54:00,mfh,13.97
2022-07-16T04:55:00,mfh,13.96
2022-07-16T04:56:00,mfh,14.51
2022-07-16T04:57:00,mfh,14.38
2022-07-16T04:58:00,mfh,14.36
2022-07-16T04:59:00,mfh,14.72
2022-07-16T05:00:00,mfh,13.10
2022-07-16T05:01:00,mfh,27.81
2022-07-16T05:02:00,mfh,27.75
2022-07-16T05:03:00,mfh,28.78
2022-07-16T05:04:00,mfh,28.60
2022-07-16T05:05:00,mfh,28.63
2022-07-16T05:06:00,mfh,28.59
2022-07-16T05:07:00,mfh,28.63
2022-07-16T05:08:00,mfh,28.62
2022-07-16T05:09:00,mfh,27.92
2022-07-16T05:10:00,mfh,27.87
2022-07-16T05:11:00,mfh,29.75
2022-07-16T05:12:00,mfh,29.98
2022-07-16T05:13:00,mfh,30.53
2022-07-16T05:14:00,mfh,30.49
2022-07-16T05:15:00,mfh,30.65
2022-07-16T05:16:00,mfh,29.92
2022-07-16T05:17:00,mfh,29.36
2022-07-16T05:18:00,mfh,29.41
2022-07-16T05:19:00,mfh,29.44
2022-07-16T05:20:00,mfh,30.12
2022-07-16T05:21:00,mfh,30.15
2022-07-16T05:22:00,mfh,30.09
2022-07-16T05:23:00,mfh,29.77
2022-07-16T05:24:00,mfh,29.07
2022-07-16T05:25:00,mfh,29.11
2022-07-16T05:26:00,mfh,29.06
2022-07-16T05:27:00,mfh,28.59
2022-07-16T05:28:00,mfh,29.07
2022-07-16T05:29:00,mfh,29.34
2022-07-16T05:30:00,mfh,29.43
2022-07-16T05:31:00,mfh,29.58
2022-07-16T05:32:00,mfh,28.69
2022-07-16T05:33:00,mfh,28.68
2022-07-16T05:34:00,mfh,28.60
2022-07-16T05:35:00,mfh,28.63
2022-07-16T05:36:00,mfh,29.76
2022-07-16T05:37:00,mfh,29.56
2022-07-16T05:38:00,mfh,29.50
2022-07-16T05:39:00,mfh,29.40
2022-07-16T05:40:00,mfh,28.88
2022-07-16T05:41:00,mfh,28.83
2022-07-16T05:42:00,mfh,28.81
2022-07-16T05:43:00,mfh,29.51
2022-07-16T05:44:00,mfh,29.92
2022-07-16T05:45:00,mfh,28.49
2022-07-16T05:46:00,mfh,28.47
2022-07-16T05:47:00,mfh,28.28
2022-07-16T05:48:00,mfh,27.55
2022-07-16T05:49:00,mfh,27.30
2022-07-16T05:50:00,mfh,27.43
2022-07-16T05:51:00,mfh,27.00
2022-07-16T05:52:00,mfh,27.87
2022-07-16T05:53:00,mfh,27.61
2022-07-16T05:54:00,mfh,28.20
2022-07-16T05:55:00,mfh,27.65
2022-07-16T05:56:00,mfh,27.03
2022-07-16T05:57:00,mfh,27.16
2022-07-16T05:58:00,mfh,32.16
2022-07-16T05:59:00,mfh,31.30
2022-07-16T06:00:00,mfh,32.09
2022-07-16T06:01:00,mfh,31.88
2022-07-16T06:02:00,mfh,32.25
2022-07-16T06:03:00,mfh,32.08
2022-07-16T06:04:00,mfh,31.29
2022-07-16T06:05:00,mfh,31.01
2022-07-16T06:06:00,mfh,30.96
2022-07-16T06:07:00,mfh,32.36
2022-07-16T06:08:00,mfh,31.48
2022-07-16T06:09:00,mfh,31.75
2022-07-16T06:10:00,mfh,32.16
2022-07-16T06:11:00,mfh,30.78
2022-07-16T06:12:00,mfh,29.96
2022-07-16T06:13:00,mfh,30.49
2022-07-16T06:14:00,mfh,30.05
2022-07-16T06:15:00,mfh,30.29
2022-07-16T06:16:00,mfh,30.78
2022-07-16T06:17:00,mfh,30.49
2022-07-16T06:18:00,mfh,31.10
2022-07-16T06:19:00,mfh,30.56
2022-07-16T06:20:00,mfh,30.13
2022-07-16T06:21:00,mfh,30.47
2022-07-16T06:22:00,mfh,30.05
2022-07-16T06:23:00,mfh,30.01
2022-07-16T06:24:00,mfh,30.57
2022-07-16T06:25:00,mfh,30.64
2022-07-16T06:26:00,mfh,30.66
2022-07-16T06:27:00,mfh,30.96
2022-07-16T06:28:00,mfh,30.32
2022-07-16T06:29:00,mfh,30.27
2022-07-16T06:30:00,mfh,29.95
2022-07-16T06:31:00,mfh,30.53
2022-07-16T06:32:00,mfh,30.84
2022-07-16T06:33:00,mfh,30.95
2022-07-16T06:34:00,mfh,31.38
2022-07-16T06:35:00,mfh,31.26
2022-07-16T06:36:00,mfh,30.95
2022-07-16T06:37:00,mfh,30.76
2022-07-16T06:38:00,mfh,30.13
2022-07-16T06:39:00,mfh,29.97
2022-07-16T06:40:00,mfh,30.56
2022-07-16T06:41:00,mfh,30.35
2022-07-16T06:42:00,mfh,30.71
2022-07-16T06:43:00,mfh,30.71
2022-07-16T06:44:00,mfh,30.69
2022-07-16T06:45:00,mfh,29.87
2022-07-16T06:46:00,mfh,29.91
2022-07-16T06:47:00,mfh,30.01
2022-07-16T06:48:00,mfh,30.66
2022-07-16T06:49:00,mfh,30.42
2022-07-16T06:50:00,mfh,30.55
2022-07-16T06:51:00,mfh,30.85
2022-07-16T06:52:00,mfh,29.68
2022-07-16T06:53:00,mfh,29.37
2022-07-16T06:54:00,mfh,29.74
2022-07-16T06:55:00,mfh,29.96
2022-07-16T06:56:00,mfh,30.23
2022-07-16T06:57:00,mfh,30.44
2022-07-16T06:58:00,mfh,30.34
2022-07-16T06:59:00,mfh,29.51
2022-07-16T07:00:00,mfh,29.59
2022-07-16T07:01:00,mfh,29.04
2022-07-16T07:02:00,mfh,28.81
2022-07-16T07:03:00,mfh,28.85
2022-07-16T07:04:00,mfh,30.17
2022-07-16T07:05:00,mfh,29.31
2022-07-16T07:06:00,mfh,29.31
2022-07-16T07:07:00,mfh,29.71
2022-07-16T07:08:00,mfh,28.78
2022-07-16T07:09:00,mfh,28.86
2022-07-16T07:10:00,mfh,28.72
2022-07-16T07:11:00,mfh,29.04
2022-07-16T07:12:00,mfh,29.04
2022-07-16T07:13:00,mfh,28.60
2022-07-16T07:14:00,mfh,28.22
2022-07-16T07:15:00,mfh,28.46
2022-07-16T07:16:00,mfh,28.73
2022-07-16T07:17:00,mfh,28.07
2022-07-16T07:18:00,mfh,27.63
2022-07-16T07:19:00,mfh,28.10
2022-07-16T07:20:00,mfh,28.02
2022-07-16T07:21:00,mfh,28.57
2022-07-16T07:22:00,mfh,28.54
2022-07-16T07:23:00,mfh,29.08
2022-07-16T07:24:00,mfh,28.94
2022-07-16T07:25:00,mfh,27.95
2022-07-16T07:26:00,mfh,28.00
2022-07-16T07:27:00,mfh,28.48
2022-07-16T07:28:00,mfh,29.04
2022-07-16T07:29:00,mfh,28.78
2022-07-16T07:30:00,mfh,28.70
2022-07-16T07:31:00,mfh,28.45
2022-07-16T07:32:00,mfh,28.38
2022-07-16T07:33:00,mfh,28.28
2022-07-16T07:34:00,mfh,27.90
2022-07-16T07:35:00,mfh,27.87
2022-07-16T07:36:00,mfh,28.62
2022-07-16T07:37:00,mfh,28.32
2022-07-16T07:38:00,mfh,28.60
2022-07-16T07:39:00,mfh,28.42
2022-07-16T07:40:00,mfh,28.06
2022-07-16T07:41:00,mfh,27.98
2022-07-16T07:42:00,mfh,27.63
2022-07-16T07:43:00,mfh,27.80
2022-07-16T07:44:00,mfh,28.66
2022-07-16T07:45:00,mfh,28.63
2022-07-16T07:46:00,mfh,28.73
2022-07-16T07:47:00,mfh,28.67
2022-07-16T07:48:00,mfh,28.96
2022-07-16T07:49:00,mfh,27.99
2022-07-16T07:50:00,mfh,28.05
2022-07-16T07:51:00,mfh,23.84
2022-07-16T07:52:00,mfh,24.29
2022-07-16T07:53:00,mfh,24.52
2022-07-16T07:54:00,mfh,25.33
2022-07-16T07:55:00,mfh,24.33
2022-07-16T07:56:00,mfh,23.73
2022-07-16T07:57:00,mfh,23.51
2022-07-16T07:58:00,mfh,23.37
2022-07-16T07:59:00,mfh,23.64
2022-07-16T08:00:00,mfh,24.25
2022-07-16T08:01:00,mfh,24.44
2022-07-16T08:02:00,mfh,24.51
2022-07-16T08:03:00,mfh,24.53
2022-07-16T08:04:00,mfh,23.89
2022-07-16T08:05:00,mfh,23.77
2022-07-16T08:06:00,mfh,23.94
2022-07-16T08:07:00,mfh,23.88
2022-07-16T08:08:00,mfh,23.79
2022-07-16T08:09:00,mfh,25.20
2022-07-16T08:10:00,mfh,24.22
2022-07-16T08:11:00,mfh,24.85
2022-07-16T08:12:00,mfh,23.88
2022-07-16T08:13:00,mfh,23.89
2022-07-16T08:14:00,mfh,23.86
2022-07-16T08:15:00,mfh,23.57
2022-07-16T08:16:00,mfh,24.12
2022-07-16T08:17:00,mfh,24.03
2022-07-16T08:18:00,mfh,24.07
2022-07-16T08:19:00,mfh,24.15
2022-07-16T08:20:00,mfh,24.16
2022-07-16T08:21:00,mfh,24.28
2022-07-16T08:22:00,mfh,23.45
2022-07-16T08:23:00,mfh,23.30
2022-07-16T08:24:00,mfh,24.76
2022-07-16T08:25:00,mfh,25.49
2022-07-16T08:26:00,mfh,25.64
2022-07-16T08:27:00,mfh,26.04
2022-07-16T08:28:00,mfh,25.01
2022-07-16T08:29:00,mfh,25.09
2022-07-16T08:30:00,mfh,25.06
2022-07-16T08:31:00,mfh,23.39
2022-07-16T08:32:00,mfh,23.47
2022-07-16T08:33:00,mfh,24.18
2022-07-16T08:34:00,mfh,24.09
2022-07-16T08:35:00,mfh,24.26
2022-07-16T08:36:00,mfh,23.78
2022-07-16T08:37:00,mfh,23.94
2022-07-16T08:38:00,mfh,24.04
2022-07-16T08:39:00,mfh,23.63
2022-07-16T08:40:00,mfh,23.67
2022-07-16T08:41:00,mfh,24.25
2022-07-16T08:42:00,mfh,24.23
2022-07-16T08:43:00,mfh,24.13
2022-07-16T08:44:00,mfh,23.51
2022-07-16T08:45:00,mfh,23.40
2022-07-16T08:46:00,mfh,23.43
2022-07-16T08:47:00,mfh,23.39
2022-07-16T08:48:00,mfh,24.02
2022-07-16T08:49:00,mfh,24.18
2022-07-16T08:50:00,mfh,24.08
2022-07-16T08:51:00,mfh,24.14
2022-07-16T08:52:00,mfh,23.55
2022-07-16T08:53:00,mfh,23.83
2022-07-16T08:54:00,mfh,23.43
2022-07-16T08:55:00,mfh,23.33
2022-07-16T08:56:00,mfh,23.33
2022-07-16T08:57:00,mfh,23.96
2022-07-16T08:58:00,mfh,23.98
2022-07-16T08:59:00,mfh,24.48
2022-07-16T09:00:00,mfh,24.62
2022-07-16T09:01:00,mfh,33.09
2022-07-16T09:02:00,mfh,34.07
2022-07-16T09:03:00,mfh,34.38
2022-07-16T09:04:00,mfh,34.27
2022-07-16T09:05:00,mfh,34.80
2022-07-16T09:06:00,mfh,34.73
2022-07-16T09:07:00,mfh,34.60
2022-07-16T09:08:00,mfh,34.58
2022-07-16T09:09:00,mfh,34.19
2022-07-16T09:10:00,mfh,34.28
2022-07-16T09:11:00,mfh,34.27
2022-07-16T09:12:00,mfh,34.40
2022-07-16T09:13:00,mfh,35.58
2022-07-16T09:14:00,mfh,35.30
2022-07-16T09:15:00,mfh,35.06
2022-07-16T09:16:00,mfh,34.40
2022-07-16T09:17:00,mfh,34.62
2022-07-16T09:18:00,mfh,34.26
2022-07-16T09:19:00,mfh,34.26
2022-07-16T09:20:00,mfh,34.96
2022-07-16T09:21:00,mfh,35.11
2022-07-16T09:22:00,mfh,35.19
2022-07-16T09:23:00,mfh,36.13
2022-07-16T09:24:00,mfh,34.92
2022-07-16T09:25:00,mfh,35.06
2022-07-16T09:26:00,mfh,35.71
2022-07-16T09:27:00,mfh,34.40
2022-07-16T09:28:00,mfh,35.17
2022-07-16T09:29:00,mfh,35.55
2022-07-16T09:30:00,mfh,35.67
2022-07-16T09:31:00,mfh,35.55
2022-07-16T09:32:00,mfh,35.43
2022-07-16T09:33:00,mfh,34.73
2022-07-16T09:34:00,mfh,35.74
2022-07-16T09:35:00,mfh,35.96
2022-07-16T09:36:00,mfh,36.30
2022-07-16T09:37:00,mfh,36.99
2022-07-16T09:38:00,mfh,37.15
2022-07-16T09:39:00,mfh,37.34
2022-07-16T09:40:00,mfh,37.02
2022-07-16T09:41:00,mfh,36.49
2022-07-16T09:42:00,mfh,37.63
2022-07-16T09:43:00,mfh,36.76
2022-07-16T09:44:00,mfh,36.63
2022-07-16T09:45:00,mfh,36.66
2022-07-16T09:46:00,mfh,36.70
2022-07-16T09:47:00,mfh,36.82
2022-07-16T09:48:00,mfh,36.64
2022-07-16T09:49:00,mfh,37.91
2022-07-16T09:50:00,mfh,38.03
2022-07-16T09:51:00,mfh,38.16
2022-07-16T09:52:00,mfh,39.36
2022-07-16T09:53:00,mfh,39.94
2022-07-16T09:54:00,mfh,38.67
2022-07-16T09:55:00,mfh,38.89
2022-07-16T09:56:00,mfh,38.51
2022-07-16T09:57:00,mfh,38.07
2022-07-16T09:58:00,mfh,37.86
2022-07-16T09:59:00,mfh,38.24
2022-07-16T10:00:00,mfh,38.10
2022-07-16T10:01:00,mfh,37.98
2022-07-16T10:02:00,mfh,50.51
2022-07-16T10:03:00,mfh,51.85
2022-07-16T10:04:00,mfh,51.91
2022-07-16T10:05:00,mfh,50.54
2022-07-16T10:06:00,mfh,49.87
2022-07-16T10:07:00,mfh,50.00
2022-07-16T10:08:00,mfh,49.54
2022-07-16T10:09:00,mfh,50.20
2022-07-16T10:10:00,mfh,49.82
2022-07-16T10:11:00,mfh,49.87
2022-07-16T10:12:00,mfh,49.60
2022-07-16T10:13:00,mfh,48.79
2022-07-16T10:14:00,mfh,48.77
2022-07-16T10:15:00,mfh,48.71
2022-07-16T10:16:00,mfh,48.52
2022-07-16T10:17:00,mfh,49.08
2022-07-16T10:18:00,mfh,44.18
2022-07-16T10:19:00,mfh,44.38
2022-07-16T10:20:00,mfh,44.45
2022-07-16T10:21:00,mfh,43.47
2022-07-16T10:22:00,mfh,36.83
2022-07-16T10:23:00,mfh,43.79
2022-07-16T10:24:00,mfh,50.63
2022-07-16T10:25:00,mfh,58.95
2022-07-16T10:26:00,mfh,59.36
2022-07-16T10:27:00,mfh,59.23
2022-07-16T10:28:00,mfh,57.90
2022-07-16T10:29:00,mfh,56.98
2022-07-16T10:30:00,mfh,56.79
2022-07-16T10:31:00,mfh,56.68
2022-07-16T10:32:00,mfh,56.64
2022-07-16T10:33:00,mfh,49.29
2022-07-16T10:34:00,mfh,49.17
2022-07-16T10:35:00,mfh,48.95
2022-07-16T10:36:00,mfh,48.94
2022-07-16T10:37:00,mfh,48.26
2022-07-16T10:38:00,mfh,48.11
2022-07-16T10:39:00,mfh,48.05
2022-07-16T10:40:00,mfh,42.38
2022-07-16T10:41:00,mfh,43.32
2022-07-16T10:42:00,mfh,42.44
2022-07-16T10:43:00,mfh,42.43
2022-07-16T10:44:00,mfh,41.92
2022-07-16T10:45:00,mfh,42.48
2022-07-16T10:46:00,mfh,42.41
2022-07-16T10:47:00,mfh,35.18
2022-07-16T10:48:00,mfh,36.30
2022-07-16T10:49:00,mfh,36.54
2022-07-16T10:50:00,mfh,36.49
2022-07-16T10:51:00,mfh,36.09
2022-07-16T10:52:00,mfh,35.44
2022-07-16T10:53:00,mfh,35.33
2022-07-16T10:54:00,mfh,35.40
2022-07-16T10:55:00,mfh,43.43
2022-07-16T10:56:00,mfh,44.05
2022-07-16T10:57:00,mfh,44.28
2022-07-16T10:58:00,mfh,44.36
2022-07-16T10:59:00,mfh,44.39
2022-07-16T11:00:00,mfh,43.47
2022-07-16T11:01:00,mfh,43.28
2022-07-16T11:02:00,mfh,43.17
2022-07-16T11:03:00,mfh,43.04
2022-07-16T11:04:00,mfh,43.03
2022-07-16T11:05:00,mfh,43.44
2022-07-16T11:06:00,mfh,43.26
2022-07-16T11:07:00,mfh,43.22
2022-07-16T11:08:00,mfh,43.22
2022-07-16T11:09:00,mfh,42.34
2022-07-16T11:10:00,mfh,42.25
2022-07-16T11:11:00,mfh,42.34
2022-07-16T11:12:00,mfh,42.38
2022-07-16T11:13:00,mfh,48.48
2022-07-16T11:14:00,mfh,56.26
2022-07-16T11:15:00,mfh,57.64
2022-07-16T11:16:00,mfh,57.85
2022-07-16T11:17:00,mfh,56.88
2022-07-16T11:18:00,mfh,56.98
2022-07-16T11:19:00,mfh,56.83
2022-07-16T11:20:00,mfh,56.04
2022-07-16T11:21:00,mfh,57.04
2022-07-16T11:22:00,mfh,49.16
2022-07-16T11:23:00,mfh,49.64
2022-07-16T11:24:00,mfh,48.91
2022-07-16T11:25:00,mfh,48.80
2022-07-16T11:26:00,mfh,48.38
2022-07-16T11:27:00,mfh,48.70
2022-07-16T11:28:00,mfh,48.81
2022-07-16T11:29:00,mfh,49.18
2022-07-16T11:30:00,mfh,49.25
2022-07-16T11:31:00,mfh,49.22
2022-07-16T11:32:00,mfh,49.00
2022-07-16T11:33:00,mfh,48.91
2022-07-16T11:34:00,mfh,49.14
2022-07-16T11:35:00,mfh,49.15
2022-07-16T11:36:00,mfh,55.25
2022-07-16T11:37:00,mfh,55.96
2022-07-16T11:38:00,mfh,56.33
2022-07-16T11:39:00,mfh,56.11
2022-07-16T11:40:00,mfh,55.04
2022-07-16T11:41:00,mfh,55.02
2022-07-16T11:42:00,mfh,54.96
2022-07-16T11:43:00,mfh,49.75
2022-07-16T11:44:00,mfh,50.45
2022-07-16T11:45:00,mfh,43.54
2022-07-16T11:46:00,mfh,51.04
2022-07-16T11:47:00,mfh,45.01
2022-07-16T11:48:00,mfh,45.16
2022-07-16T11:49:00,mfh,44.67
2022-07-16T11:50:00,mfh,51.34
2022-07-16T11:51:00,mfh,50.56
2022-07-16T11:52:00,mfh,50.12
2022-07-16T11:53:00,mfh,50.64
2022-07-16T11:54:00,mfh,51.48
2022-07-16T11:55:00,mfh,52.01
2022-07-16T11:56:00,mfh,51.20
2022-07-16T11:57:00,mfh,50.33
2022-07-16T11:58:00,mfh,50.33
2022-07-16T11:59:00,mfh,51.40
2022-07-16T12:00:00,mfh,44.43
2022-07-16T12:01:00,mfh,44.87
2022-07-16T12:02:00,mfh,44.72
2022-07-16T12:03:00,mfh,51.16
2022-07-16T12:04:00,mfh,43.21
2022-07-16T12:05:00,mfh,56.57
2022-07-16T12:06:00,mfh,57.50
2022-07-16T12:07:00,mfh,57.48
2022-07-16T12:08:00,mfh,57.05
2022-07-16T12:09:00,mfh,57.48
2022-07-16T12:10:00,mfh,65.86
2022-07-16T12:11:00,mfh,65.14
2022-07-16T12:12:00,mfh,64.29
2022-07-16T12:13:00,mfh,63.86
2022-07-16T12:14:00,mfh,64.15
2022-07-16T12:15:00,mfh,63.41
2022-07-16T12:16:00,mfh,63.05
2022-07-16T12:17:00,mfh,64.03
2022-07-16T12:18:00,mfh,63.83
2022-07-16T12:19:00,mfh,63.51
2022-07-16T12:20:00,mfh,55.39
2022-07-16T12:21:00,mfh,55.53
2022-07-16T12:22:00,mfh,55.61
2022-07-16T12:23:00,mfh,63.42
2022-07-16T12:24:00,mfh,62.87
2022-07-16T12:25:00,mfh,63.53
2022-07-16T12:26:00,mfh,57.97
2022-07-16T12:27:00,mfh,57.80
2022-07-16T12:28:00,mfh,50.37
2022-07-16T12:29:00,mfh,49.40
2022-07-16T12:30:00,mfh,49.92
2022-07-16T12:31:00,mfh,49.37
2022-07-16T12:32:00,mfh,49.32
2022-07-16T12:33:00,mfh,56.63
2022-07-16T12:34:00,mfh,55.21
2022-07-16T12:35:00,mfh,55.65
2022-07-16T12:36:00,mfh,55.55
2022-07-16T12:37:00,mfh,54.89
2022-07-16T12:38:00,mfh,55.13
2022-07-16T12:39:00,mfh,55.19
2022-07-16T12:40:00,mfh,55.25
2022-07-16T12:41:00,mfh,55.68
2022-07-16T12:42:00,mfh,55.32
2022-07-16T12:43:00,mfh,48.33
2022-07-16T12:44:00,mfh,42.75
2022-07-16T12:45:00,mfh,41.48
2022-07-16T12:46:00,mfh,41.35
2022-07-16T12:47:00,mfh,49.38
2022-07-16T12:48:00,mfh,48.90
2022-07-16T12:49:00,mfh,49.59
2022-07-16T12:50:00,mfh,49.53
2022-07-16T12:51:00,mfh,49.30
2022-07-16T12:52:00,mfh,49.32
2022-07-16T12:53:00,mfh,48.61
2022-07-16T12:54:00,mfh,48.50
2022-07-16T12:55:00,mfh,48.32
2022-07-16T12:56:00,mfh,48.72
2022-07-16T12:57:00,mfh,48.89
2022-07-16T12:58:00,mfh,48.88
2022-07-16T12:59:00,mfh,55.42
2022-07-16T13:00:00,mfh,55.57
2022-07-16T13:01:00,mfh,54.79
2022-07-16T13:02:00,mfh,55.19
2022-07-16T13:03:00,mfh,54.70
2022-07-16T13:04:00,mfh,54.46
2022-07-16T13:05:00,mfh,55.07
2022-07-16T13:06:00,mfh,55.32
2022-07-16T13:07:00,mfh,62.66
2022-07-16T13:08:00,mfh,57.35
2022-07-16T13:09:00,mfh,56.81
2022-07-16T13:10:00,mfh,56.65
2022-07-16T13:11:00,mfh,56.62
2022-07-16T13:12:00,mfh,56.48
2022-07-16T13:13:00,mfh,56.90
2022-07-16T13:14:00,mfh,56.72
2022-07-16T13:15:00,mfh,56.59
2022-07-16T13:16:00,mfh,56.71
2022-07-16T13:17:00,mfh,55.75
2022-07-16T13:18:00,mfh,62.44